| time (UTC) | temp F | wind direction | speed MPH | gust MPH | rain 1hr in | rain 24hr in | rain mn in | humidity % | barometer mb |
| 20260905120411 | 71 | 349 | 6.0 | 16.0 | 0.00 | 0.08 | 0.00 | 58 | 1022.2 |
| 20260905115916 | 71 | 344 | 5.0 | 12.0 | 0.00 | 0.08 | 0.00 | 60 | 1022.2 |
| 20260905115411 | 71 | 173 | 4.0 | 15.0 | 0.00 | 0.08 | 0.00 | 59 | 1022.0 |
| 20260905114912 | 71 | 297 | 4.0 | 15.0 | 0.00 | 0.08 | 0.00 | 61 | 1021.9 |
| 20260905114411 | 70 | 237 | 5.0 | 12.0 | 0.00 | 0.08 | 0.00 | 63 | 1021.9 |
| 20260905113910 | 69 | 0 | 5.0 | 15.0 | 0.00 | 0.08 | 0.00 | 64 | 1021.9 |
| 20260905113408 | 68 | 316 | 5.0 | 15.0 | 0.00 | 0.08 | 0.00 | 63 | 1021.8 |
| 20260905112912 | 68 | 229 | 5.0 | 11.0 | 0.00 | 0.08 | 0.00 | 61 | 1021.8 |
| 20260905112409 | 69 | 315 | 5.0 | 13.0 | 0.00 | 0.08 | 0.00 | 60 | 1021.9 |
| 20260905111909 | 69 | 309 | 5.0 | 14.0 | 0.00 | 0.08 | 0.00 | 60 | 1021.8 |
| 20260905111407 | 70 | 17 | 5.0 | 14.0 | 0.00 | 0.08 | 0.00 | 59 | 1021.5 |
| 20260905110912 | 70 | 234 | 5.0 | 14.0 | 0.00 | 0.08 | 0.00 | 60 | 1021.5 |
| 20260905110755 | 69 | 216 | 5.0 | 14.0 | 0.00 | 0.08 | 0.00 | 60 | 1021.6 |
| 20260905105955 | 69 | 321 | 4.0 | 12.0 | 0.00 | 0.08 | 0.00 | 62 | 1021.5 |
| 20260905105411 | 69 | 167 | 5.0 | 12.0 | 0.00 | 0.08 | 0.00 | 62 | 1021.6 |
| 20260905104912 | 69 | 310 | 5.0 | 10.0 | 0.00 | 0.08 | 0.00 | 60 | 1021.4 |
| 20260905104415 | 69 | 265 | 5.0 | 13.0 | 0.00 | 0.08 | 0.00 | 61 | 1021.4 |
| 20260905103915 | 69 | 277 | 5.0 | 13.0 | 0.00 | 0.08 | 0.00 | 62 | 1021.3 |
| 20260905103408 | 68 | 333 | 4.0 | 10.0 | 0.00 | 0.08 | 0.00 | 64 | 1021.5 |
| 20260905102910 | 67 | 232 | 4.0 | 10.0 | 0.00 | 0.08 | 0.00 | 66 | 1021.4 |
| 20260905102409 | 68 | 313 | 4.0 | 11.0 | 0.00 | 0.08 | 0.00 | 67 | 1021.3 |
| 20260905101911 | 68 | 244 | 4.0 | 11.0 | 0.00 | 0.08 | 0.00 | 68 | 1021.3 |
| 20260905101408 | 67 | 259 | 4.0 | 11.0 | 0.00 | 0.08 | 0.00 | 69 | 1021.2 |
| 20260905100904 | 67 | 194 | 4.0 | 9.0 | 0.00 | 0.08 | 0.00 | 69 | 1021.2 |
| 20260905100401 | 67 | 219 | 4.0 | 12.0 | 0.00 | 0.08 | 0.00 | 69 | 1021.1 |
| 20260905095901 | 67 | 285 | 4.0 | 12.0 | 0.00 | 0.08 | 0.00 | 70 | 1021.0 |
| 20260905095401 | 66 | 214 | 4.0 | 10.0 | 0.00 | 0.08 | 0.00 | 71 | 1021.0 |
| 20260905094905 | 66 | 302 | 4.0 | 14.0 | 0.00 | 0.08 | 0.00 | 70 | 1021.0 |
| 20260905094359 | 66 | 31 | 4.0 | 14.0 | 0.00 | 0.08 | 0.00 | 70 | 1021.0 |
| 20260905093857 | 66 | 96 | 5.0 | 12.0 | 0.00 | 0.08 | 0.00 | 70 | 1020.7 |
| 20260905093358 | 67 | 319 | 5.0 | 12.0 | 0.00 | 0.08 | 0.00 | 71 | 1020.8 |
| 20260905092856 | 67 | 5 | 4.0 | 16.0 | 0.00 | 0.08 | 0.00 | 73 | 1020.8 |
| 20260905092359 | 66 | 231 | 4.0 | 16.0 | 0.00 | 0.08 | 0.00 | 76 | 1020.6 |
| 20260905091855 | 65 | 175 | 4.0 | 14.0 | 0.00 | 0.08 | 0.00 | 76 | 1020.7 |
| 20260905091357 | 65 | 260 | 5.0 | 14.0 | 0.00 | 0.08 | 0.00 | 76 | 1020.5 |
| 20260905090858 | 65 | 355 | 4.0 | 12.0 | 0.00 | 0.08 | 0.00 | 77 | 1020.5 |
| 20260905090353 | 65 | 230 | 3.0 | 10.0 | 0.00 | 0.08 | 0.00 | 78 | 1020.5 |
| 20260905090228 | 65 | 227 | 5.0 | 14.0 | 0.00 | 0.08 | 0.00 | 78 | 1020.5 |
| 20260905085358 | 64 | 265 | 5.0 | 14.0 | 0.00 | 0.08 | 0.00 | 79 | 1020.4 |
| 20260905084853 | 64 | 198 | 4.0 | 12.0 | 0.00 | 0.08 | 0.00 | 80 | 1020.3 |
| 20260905084352 | 64 | 238 | 4.0 | 12.0 | 0.00 | 0.08 | 0.00 | 81 | 1020.3 |
| 20260905083852 | 64 | 230 | 4.0 | 12.0 | 0.00 | 0.08 | 0.00 | 82 | 1020.3 |
| 20260905083728 | 64 | 194 | 3.0 | 10.0 | 0.00 | 0.08 | 0.00 | 82 | 1020.2 |
| 20260905083222 | 63 | 153 | 4.0 | 9.0 | 0.00 | 0.08 | 0.00 | 82 | 1020.0 |
| 20260905082736 | 63 | 157 | 5.0 | 14.0 | 0.00 | 0.08 | 0.00 | 83 | 1019.9 |
| 20260905081846 | 63 | 266 | 6.0 | 14.0 | 0.00 | 0.08 | 0.00 | 83 | 1019.9 |
| 20260905081345 | 62 | 211 | 5.0 | 12.0 | 0.00 | 0.08 | 0.00 | 84 | 1020.0 |
| 20260905080851 | 62 | 246 | 5.0 | 11.0 | 0.00 | 0.08 | 0.00 | 85 | 1019.9 |
| 20260905080343 | 62 | 313 | 4.0 | 10.0 | 0.00 | 0.08 | 0.00 | 86 | 1019.9 |
| 20260905075848 | 62 | 232 | 4.0 | 10.0 | 0.00 | 0.08 | 0.00 | 86 | 1019.8 |
| 20260905075343 | 61 | 210 | 3.0 | 9.0 | 0.00 | 0.08 | 0.00 | 87 | 1019.7 |
| 20260905074848 | 61 | 166 | 3.0 | 9.0 | 0.00 | 0.08 | 0.00 | 87 | 1019.6 |
| 20260905074454 | 60 | 257 | 4.0 | 10.0 | 0.00 | 0.08 | 0.00 | 89 | 1019.7 |
| 20260905074450 | 60 | 193 | 4.0 | 10.0 | 0.00 | 0.08 | 0.00 | 88 | 1019.6 |
| 20260905074423 | 61 | 244 | 4.0 | 9.0 | 0.00 | 0.08 | 0.00 | 88 | 1019.5 |
| 20260905072838 | 60 | 210 | 3.0 | 9.0 | 0.00 | 0.08 | 0.00 | 89 | 1019.5 |
| 20260905072340 | 60 | 221 | 4.0 | 9.0 | 0.00 | 0.08 | 0.00 | 89 | 1019.5 |
| 20260905071837 | 59 | 192 | 4.0 | 9.0 | 0.00 | 0.08 | 0.00 | 89 | 1019.3 |
| 20260905071338 | 59 | 193 | 4.0 | 9.0 | 0.00 | 0.08 | 0.00 | 89 | 1019.3 |
| 20260905070843 | 59 | 175 | 3.0 | 7.0 | 0.00 | 0.08 | 0.00 | 89 | 1019.2 |
| 20260905070338 | 58 | 188 | 3.0 | 8.0 | 0.00 | 0.08 | 0.00 | 90 | 1019.1 |
| 20260905065836 | 58 | 206 | 3.0 | 8.0 | 0.00 | 0.08 | 0.00 | 90 | 1019.1 |
| 20260905065334 | 58 | 236 | 3.0 | 6.0 | 0.00 | 0.08 | 0.00 | 90 | 1019.1 |
| 20260905064834 | 58 | 205 | 3.0 | 6.0 | 0.00 | 0.08 | 0.00 | 90 | 1019.1 |
| 20260905064335 | 58 | 192 | 2.0 | 5.0 | 0.00 | 0.08 | 0.00 | 90 | 1019.0 |
| 20260905064114 | 57 | 218 | 2.0 | 6.0 | 0.00 | 0.08 | 0.00 | 90 | 1018.9 |
| 20260905064003 | 57 | 190 | 2.0 | 6.0 | 0.00 | 0.08 | 0.00 | 90 | 1019.0 |
| 20260905062828 | 57 | 209 | 2.0 | 5.0 | 0.00 | 0.08 | 0.00 | 90 | 1018.8 |
| 20260905062325 | 57 | 191 | 2.0 | 5.0 | 0.00 | 0.08 | 0.00 | 90 | 1018.8 |
| 20260905061821 | 57 | 195 | 3.0 | 5.0 | 0.00 | 0.08 | 0.00 | 90 | 1018.7 |
| 20260905061319 | 57 | 207 | 3.0 | 5.0 | 0.00 | 0.08 | 0.00 | 90 | 1018.7 |
| 20260905060817 | 57 | 224 | 3.0 | 6.0 | 0.00 | 0.08 | 0.00 | 90 | 1018.6 |
| 20260905060640 | 56 | 201 | 3.0 | 6.0 | 0.00 | 0.08 | 0.00 | 90 | 1018.6 |
| 20260905060141 | 56 | 194 | 3.0 | 6.0 | 0.00 | 0.08 | 0.00 | 90 | 1018.6 |
| 20260905055309 | 56 | 198 | 2.0 | 6.0 | 0.00 | 0.08 | 0.00 | 90 | 1018.5 |
| 20260905055126 | 56 | 250 | 2.0 | 6.0 | 0.00 | 0.08 | 0.00 | 90 | 1018.4 |
| 20260905054633 | 56 | 227 | 3.0 | 7.0 | 0.00 | 0.08 | 0.00 | 90 | 1018.3 |
| 20260905053812 | 56 | 194 | 2.0 | 7.0 | 0.00 | 0.08 | 0.00 | 89 | 1018.3 |
| 20260905053322 | 55 | 191 | 2.0 | 5.0 | 0.00 | 0.08 | 0.00 | 89 | 1018.1 |
| 20260905052812 | 55 | 199 | 2.0 | 4.0 | 0.00 | 0.08 | 0.00 | 89 | 1018.1 |
| 20260905052629 | 55 | 189 | 2.0 | 5.0 | 0.00 | 0.08 | 0.00 | 89 | 1018.0 |
| 20260905051813 | 55 | 207 | 3.0 | 5.0 | 0.00 | 0.08 | 0.00 | 89 | 1017.9 |
| 20260905051318 | 55 | 241 | 2.0 | 5.0 | 0.00 | 0.08 | 0.00 | 89 | 1017.9 |
| 20260905050813 | 55 | 190 | 2.0 | 5.0 | 0.00 | 0.08 | 0.00 | 89 | 1017.9 |
| 20260905050633 | 55 | 205 | 2.0 | 5.0 | 0.00 | 0.08 | 0.00 | 89 | 1017.8 |
| 20260905045813 | 55 | 187 | 2.0 | 5.0 | 0.00 | 0.08 | 0.00 | 89 | 1017.7 |
| 20260905045306 | 55 | 196 | 2.0 | 5.0 | 0.00 | 0.08 | 0.00 | 88 | 1017.6 |
| 20260905044756 | 55 | 217 | 2.0 | 4.0 | 0.00 | 0.08 | 0.00 | 88 | 1017.6 |
| 20260905044254 | 55 | 217 | 2.0 | 4.0 | 0.00 | 0.08 | 0.00 | 88 | 1017.5 |
| 20260905044049 | 55 | 207 | 1.0 | 4.0 | 0.00 | 0.08 | 0.00 | 88 | 1017.5 |
| 20260905043242 | 55 | 207 | 1.0 | 4.0 | 0.00 | 0.08 | 0.00 | 88 | 1017.2 |
| 20260905043233 | 55 | 207 | 1.0 | 4.0 | 0.00 | 0.08 | 0.00 | 88 | 1017.4 |
| 20260905043222 | 55 | 184 | 1.0 | 4.0 | 0.00 | 0.08 | 0.00 | 87 | 1017.4 |
| 20260905042340 | 55 | 244 | 1.0 | 4.0 | 0.00 | 0.08 | 0.00 | 88 | 1017.4 |
| 20260905041756 | 55 | 184 | 1.0 | 3.0 | 0.00 | 0.08 | 0.00 | 87 | 1017.3 |
| 20260905041301 | 55 | 184 | 1.0 | 4.0 | 0.00 | 0.08 | 0.00 | 87 | 1017.4 |
| 20260905040809 | 55 | 184 | 1.0 | 4.0 | 0.00 | 0.08 | 0.00 | 87 | 1017.3 |
| 20260905040232 | 56 | 184 | 1.0 | 3.0 | 0.00 | 0.08 | 0.00 | 87 | 1017.2 |
| 20260905040052 | 56 | 184 | 1.0 | 3.0 | 0.00 | 0.08 | 0.00 | 87 | 1017.2 |
| 20260905035532 | 56 | 184 | 1.0 | 3.0 | 0.00 | 0.08 | 0.00 | 87 | 1017.1 |
| 20260905035029 | 56 | 184 | 1.0 | 3.0 | 0.00 | 0.08 | 0.00 | 87 | 1017.2 |
| 20260905034529 | 56 | 184 | 1.0 | 4.0 | 0.00 | 0.08 | 0.00 | 87 | 1017.1 |
| 20260905033709 | 56 | 184 | 1.0 | 4.0 | 0.00 | 0.08 | 0.00 | 86 | 1017.1 |
| 20260905033209 | 56 | 184 | 1.0 | 3.0 | 0.00 | 0.08 | 0.00 | 86 | 1017.1 |
| 20260905032710 | 56 | 184 | 1.0 | 3.0 | 0.00 | 0.08 | 0.00 | 86 | 1017.1 |
| 20260905032211 | 56 | 184 | 1.0 | 3.0 | 0.00 | 0.08 | 0.00 | 86 | 1017.0 |
| 20260905031710 | 56 | 184 | 1.0 | 4.0 | 0.00 | 0.08 | 0.00 | 86 | 1017.0 |
| 20260905031213 | 56 | 184 | 1.0 | 4.0 | 0.00 | 0.08 | 0.00 | 86 | 1016.9 |
| 20260905030651 | 56 | 184 | 1.0 | 3.0 | 0.00 | 0.08 | 0.00 | 86 | 1016.8 |
| 20260905030346 | 56 | 184 | 1.0 | 3.0 | 0.00 | 0.08 | 0.00 | 86 | 1016.7 |
| 20260905030306 | 56 | 184 | 1.0 | 3.0 | 0.00 | 0.08 | 0.00 | 86 | 1016.7 |
| 20260905025150 | 57 | 184 | 2.0 | 3.0 | 0.00 | 0.08 | 0.00 | 86 | 1016.7 |
| 20260905024647 | 57 | 184 | 2.0 | 4.0 | 0.00 | 0.08 | 0.00 | 86 | 1016.7 |
| 20260905024141 | 57 | 184 | 2.0 | 5.0 | 0.00 | 0.08 | 0.00 | 86 | 1016.7 |
| 20260905023639 | 57 | 191 | 2.0 | 5.0 | 0.00 | 0.08 | 0.00 | 85 | 1016.7 |
| 20260905023136 | 57 | 207 | 2.0 | 4.0 | 0.00 | 0.08 | 0.00 | 85 | 1016.7 |
| 20260905022637 | 57 | 207 | 2.0 | 4.0 | 0.00 | 0.08 | 0.00 | 85 | 1016.8 |
| 20260905022141 | 57 | 207 | 2.0 | 3.0 | 0.00 | 0.08 | 0.00 | 85 | 1016.7 |
| 20260905021638 | 57 | 207 | 2.0 | 4.0 | 0.00 | 0.08 | 0.00 | 85 | 1016.7 |
| 20260905021136 | 57 | 234 | 2.0 | 4.0 | 0.00 | 0.08 | 0.00 | 85 | 1016.7 |
| 20260905020634 | 57 | 207 | 2.0 | 4.0 | 0.00 | 0.08 | 0.00 | 85 | 1016.6 |
| 20260905020132 | 58 | 207 | 2.0 | 4.0 | 0.00 | 0.08 | 0.00 | 85 | 1016.7 |
| 20260905015633 | 58 | 207 | 2.0 | 5.0 | 0.00 | 0.08 | 0.00 | 85 | 1016.6 |
| 20260905015132 | 58 | 209 | 2.0 | 5.0 | 0.00 | 0.08 | 0.00 | 84 | 1016.5 |
| 20260905014633 | 58 | 209 | 2.0 | 5.0 | 0.00 | 0.08 | 0.00 | 84 | 1016.5 |
| 20260905014132 | 58 | 215 | 2.0 | 5.0 | 0.00 | 0.08 | 0.00 | 84 | 1016.5 |
| 20260905013945 | 58 | 215 | 2.0 | 5.0 | 0.00 | 0.08 | 0.00 | 84 | 1016.5 |
| 20260905013138 | 58 | 186 | 2.0 | 5.0 | 0.00 | 0.08 | 0.00 | 84 | 1016.5 |
| 20260905012630 | 58 | 195 | 2.0 | 4.0 | 0.00 | 0.08 | 0.00 | 84 | 1016.5 |
| 20260905012129 | 58 | 228 | 2.0 | 4.0 | 0.00 | 0.08 | 0.00 | 83 | 1016.5 |
| 20260905011627 | 58 | 228 | 2.0 | 4.0 | 0.00 | 0.08 | 0.00 | 83 | 1016.5 |
| 20260905011125 | 58 | 188 | 2.0 | 4.0 | 0.00 | 0.08 | 0.00 | 83 | 1016.3 |
| 20260905010627 | 58 | 210 | 2.0 | 4.0 | 0.00 | 0.08 | 0.00 | 83 | 1016.2 |
| 20260905010438 | 58 | 222 | 2.0 | 4.0 | 0.00 | 0.08 | 0.00 | 83 | 1016.2 |
| 20260905005625 | 58 | 222 | 2.0 | 4.0 | 0.00 | 0.08 | 0.00 | 83 | 1016.3 |
| 20260905005121 | 58 | 218 | 2.0 | 4.0 | 0.00 | 0.08 | 0.00 | 83 | 1016.3 |
| 20260905004915 | 58 | 211 | 2.0 | 5.0 | 0.00 | 0.08 | 0.00 | 83 | 1016.3 |
| 20260905004109 | 58 | 196 | 2.0 | 5.0 | 0.00 | 0.08 | 0.00 | 82 | 1016.3 |
| 20260905003743 | 58 | 202 | 2.0 | 4.0 | 0.00 | 0.08 | 0.00 | 82 | 1016.4 |
| 20260905003714 | 58 | 202 | 2.0 | 4.0 | 0.00 | 0.08 | 0.00 | 82 | 1016.3 |
| 20260905002923 | 59 | 234 | 2.0 | 3.0 | 0.00 | 0.08 | 0.00 | 82 | 1016.3 |
| 20260905002246 | 59 | 234 | 1.0 | 3.0 | 0.00 | 0.08 | 0.00 | 82 | 1016.3 |
| 20260905002212 | 59 | 234 | 2.0 | 3.0 | 0.00 | 0.08 | 0.00 | 82 | 1016.3 |
| 20260905001108 | 59 | 234 | 1.0 | 3.0 | 0.00 | 0.08 | 0.00 | 81 | 1016.3 |
| 20260905000930 | 59 | 246 | 1.0 | 3.0 | 0.00 | 0.08 | 0.00 | 81 | 1016.2 |
| 20260905000113 | 59 | 231 | 2.0 | 3.0 | 0.00 | 0.08 | 0.00 | 81 | 1016.3 |
| 20260904235610 | 59 | 173 | 1.0 | 3.0 | 0.00 | 0.08 | 0.00 | 81 | 1016.2 |
| 20260904235105 | 60 | 173 | 1.0 | 3.0 | 0.00 | 0.08 | 0.00 | 81 | 1016.2 |
| 20260904234611 | 60 | 173 | 2.0 | 5.0 | 0.00 | 0.08 | 0.00 | 81 | 1016.2 |
| 20260904234105 | 60 | 173 | 2.0 | 5.0 | 0.00 | 0.08 | 0.00 | 81 | 1016.2 |
| 20260904233609 | 60 | 173 | 2.0 | 3.0 | 0.00 | 0.08 | 0.00 | 80 | 1016.1 |
| 20260904233417 | 60 | 173 | 2.0 | 3.0 | 0.00 | 0.08 | 0.00 | 80 | 1016.2 |
| 20260904232610 | 60 | 173 | 1.0 | 3.0 | 0.00 | 0.08 | 0.00 | 80 | 1016.1 |
| 20260904232108 | 61 | 173 | 1.0 | 3.0 | 0.00 | 0.08 | 0.00 | 80 | 1016.1 |
| 20260904231615 | 61 | 173 | 1.0 | 3.0 | 0.00 | 0.08 | 0.00 | 79 | 1016.1 |
| 20260904231415 | 61 | 173 | 1.0 | 3.0 | 0.00 | 0.08 | 0.00 | 79 | 1016.0 |
| 20260904230607 | 61 | 173 | 1.0 | 3.0 | 0.00 | 0.08 | 0.00 | 79 | 1016.0 |
| 20260904230104 | 61 | 173 | 1.0 | 3.0 | 0.00 | 0.08 | 0.00 | 79 | 1016.0 |
| 20260904225609 | 61 | 278 | 1.0 | 3.0 | 0.00 | 0.08 | 0.00 | 79 | 1015.9 |
| 20260904225112 | 61 | 278 | 1.0 | 3.0 | 0.00 | 0.08 | 0.00 | 79 | 1016.0 |
| 20260904224614 | 61 | 278 | 1.0 | 4.0 | 0.00 | 0.08 | 0.00 | 79 | 1015.9 |
| 20260904224242 | 62 | 234 | 1.0 | 4.0 | 0.00 | 0.08 | 0.00 | 78 | 1016.0 |
| 20260904224215 | 62 | 212 | 1.0 | 4.0 | 0.00 | 0.08 | 0.00 | 78 | 1016.0 |
| 20260904223414 | 62 | 311 | 1.0 | 4.0 | 0.00 | 0.08 | 0.00 | 78 | 1015.9 |
| 20260904222548 | 62 | 305 | 2.0 | 4.0 | 0.00 | 0.08 | 0.00 | 78 | 1015.8 |
| 20260904222049 | 62 | 232 | 2.0 | 4.0 | 0.00 | 0.08 | 0.00 | 78 | 1015.8 |
| 20260904221721 | 62 | 202 | 1.0 | 6.0 | 0.00 | 0.08 | 0.00 | 78 | 1015.8 |
| 20260904221647 | 62 | 334 | 2.0 | 6.0 | 0.00 | 0.08 | 0.00 | 78 | 1015.8 |
| 20260904220542 | 62 | 238 | 1.0 | 4.0 | 0.00 | 0.08 | 0.00 | 78 | 1015.6 |
| 20260904220055 | 62 | 209 | 1.0 | 4.0 | 0.00 | 0.08 | 0.00 | 78 | 1015.7 |
| 20260904215537 | 62 | 243 | 1.0 | 4.0 | 0.00 | 0.08 | 0.08 | 78 | 1015.6 |
| 20260904215034 | 63 | 227 | 1.0 | 4.0 | 0.00 | 0.08 | 0.08 | 77 | 1015.6 |
| 20260904214536 | 63 | 259 | 1.0 | 3.0 | 0.00 | 0.08 | 0.08 | 77 | 1015.6 |
| 20260904214038 | 63 | 259 | 1.0 | 3.0 | 0.00 | 0.08 | 0.08 | 77 | 1015.5 |
| 20260904213537 | 63 | 208 | 1.0 | 3.0 | 0.00 | 0.08 | 0.08 | 77 | 1015.4 |
| 20260904213032 | 63 | 232 | 1.0 | 3.0 | 0.00 | 0.08 | 0.08 | 76 | 1015.4 |
| 20260904212531 | 63 | 248 | 1.0 | 3.0 | 0.00 | 0.08 | 0.08 | 76 | 1015.3 |
| 20260904212030 | 64 | 243 | 1.0 | 4.0 | 0.00 | 0.08 | 0.08 | 76 | 1015.3 |
| 20260904211529 | 64 | 233 | 1.0 | 4.0 | 0.00 | 0.08 | 0.08 | 76 | 1015.2 |
| 20260904211032 | 64 | 232 | 1.0 | 4.0 | 0.00 | 0.08 | 0.08 | 75 | 1015.3 |
| 20260904210529 | 64 | 217 | 1.0 | 4.0 | 0.00 | 0.08 | 0.08 | 75 | 1015.2 |
| 20260904210033 | 64 | 298 | 1.0 | 4.0 | 0.00 | 0.08 | 0.08 | 75 | 1015.1 |
| 20260904205533 | 64 | 281 | 1.0 | 3.0 | 0.00 | 0.08 | 0.08 | 75 | 1015.2 |
| 20260904205032 | 64 | 261 | 0.0 | 4.0 | 0.00 | 0.08 | 0.08 | 75 | 1015.2 |
| 20260904204528 | 64 | 286 | 1.0 | 4.0 | 0.00 | 0.08 | 0.08 | 74 | 1015.0 |
| 20260904204025 | 64 | 313 | 1.0 | 4.0 | 0.00 | 0.08 | 0.08 | 74 | 1015.1 |
| 20260904203520 | 64 | 321 | 2.0 | 6.0 | 0.00 | 0.08 | 0.08 | 74 | 1015.0 |
| 20260904203018 | 64 | 273 | 2.0 | 6.0 | 0.00 | 0.08 | 0.08 | 74 | 1014.9 |
| 20260904202518 | 64 | 325 | 2.0 | 4.0 | 0.00 | 0.08 | 0.08 | 74 | 1015.0 |
| 20260904202020 | 65 | 203 | 2.0 | 4.0 | 0.00 | 0.08 | 0.08 | 73 | 1014.8 |
| 20260904201513 | 65 | 267 | 1.0 | 4.0 | 0.00 | 0.08 | 0.08 | 73 | 1014.7 |
| 20260904201017 | 65 | 329 | 1.0 | 4.0 | 0.00 | 0.08 | 0.08 | 73 | 1014.7 |
| 20260904200520 | 65 | 313 | 2.0 | 7.0 | 0.00 | 0.08 | 0.08 | 72 | 1014.6 |
| 20260904200028 | 65 | 305 | 2.0 | 7.0 | 0.00 | 0.08 | 0.08 | 72 | 1014.6 |
| 20260904195503 | 65 | 273 | 2.0 | 8.0 | 0.00 | 0.08 | 0.08 | 72 | 1014.5 |
| 20260904195014 | 65 | 323 | 2.0 | 8.0 | 0.00 | 0.08 | 0.08 | 71 | 1014.4 |
| 20260904194822 | 65 | 286 | 2.0 | 4.0 | 0.00 | 0.08 | 0.08 | 71 | 1014.5 |
| 20260904194328 | 65 | 301 | 2.0 | 6.0 | 0.00 | 0.08 | 0.08 | 70 | 1014.5 |
| 20260904194324 | 67 | 172 | 4.0 | 15.0 | 0.00 | 0.08 | 0.08 | 72 | 1013.7 |
| 20260904194210 | 65 | 322 | 2.0 | 5.0 | 0.00 | 0.08 | 0.08 | 71 | 1014.5 |
| 20260904193951 | 65 | 306 | 2.0 | 6.0 | 0.00 | 0.08 | 0.08 | 70 | 1014.3 |
| 20260904193947 | 65 | 312 | 2.0 | 8.0 | 0.00 | 0.08 | 0.08 | 70 | 1014.4 |
| 20260904193942 | 65 | 331 | 3.0 | 8.0 | 0.00 | 0.08 | 0.08 | 69 | 1014.2 |
| 20260904193927 | 65 | 221 | 2.0 | 8.0 | 0.00 | 0.08 | 0.08 | 69 | 1014.3 |
| 20260904193921 | 65 | 298 | 2.0 | 8.0 | 0.00 | 0.08 | 0.08 | 69 | 1014.1 |
| 20260904192919 | 67 | 192 | 3.0 | 8.0 | 0.00 | 0.08 | 0.08 | 75 | 1013.4 |
| 20260904192914 | 67 | 0 | 3.0 | 9.0 | 0.00 | 0.08 | 0.08 | 75 | 1013.3 |
| 20260904192310 | 65 | 260 | 3.0 | 8.0 | 0.00 | 0.08 | 0.08 | 69 | 1014.4 |
| 20260904191338 | 65 | 279 | 3.0 | 9.0 | 0.00 | 0.08 | 0.08 | 69 | 1014.3 |
| 20260904191151 | 65 | 310 | 3.0 | 9.0 | 0.00 | 0.08 | 0.08 | 69 | 1014.2 |
| 20260904190624 | 66 | 138 | 2.0 | 7.0 | 0.00 | 0.08 | 0.08 | 68 | 1014.1 |
| 20260904190439 | 66 | 239 | 2.0 | 7.0 | 0.00 | 0.08 | 0.08 | 68 | 1014.1 |
| 20260904190256 | 66 | 269 | 2.0 | 8.0 | 0.00 | 0.08 | 0.08 | 68 | 1013.9 |
| 20260904190104 | 66 | 248 | 2.0 | 10.0 | 0.00 | 0.08 | 0.08 | 68 | 1013.8 |
| 20260904185901 | 66 | 183 | 3.0 | 10.0 | 0.00 | 0.08 | 0.08 | 69 | 1013.9 |
| 20260904185717 | 66 | 302 | 3.0 | 9.0 | 0.00 | 0.08 | 0.08 | 69 | 1013.7 |
| 20260904185517 | 66 | 238 | 3.0 | 11.0 | 0.00 | 0.08 | 0.08 | 69 | 1013.6 |
| 20260904185011 | 66 | 269 | 4.0 | 13.0 | 0.00 | 0.08 | 0.08 | 70 | 1013.7 |
| 20260904184207 | 66 | 23 | 4.0 | 13.0 | 0.00 | 0.08 | 0.08 | 70 | 1013.7 |
| 20260904183422 | 66 | 346 | 4.0 | 15.0 | 0.00 | 0.08 | 0.08 | 71 | 1013.7 |
| 20260904181702 | 67 | 326 | 4.0 | 13.0 | 0.00 | 0.08 | 0.08 | 73 | 1013.4 |
| 20260904180959 | 67 | 300 | 4.0 | 13.0 | 0.00 | 0.08 | 0.08 | 74 | 1013.5 |
| 20260904180112 | 67 | 192 | 3.0 | 8.0 | 0.00 | 0.08 | 0.08 | 75 | 1013.4 |
| 20260904175212 | 67 | 219 | 3.0 | 9.0 | 0.00 | 0.08 | 0.08 | 75 | 1013.3 |
| 20260904173144 | 67 | 306 | 3.0 | 9.0 | 0.00 | 0.08 | 0.08 | 76 | 1012.9 |
| 20260904172416 | 67 | 311 | 2.0 | 8.0 | 0.00 | 0.08 | 0.08 | 76 | 1013.1 |
| 20260904171913 | 67 | 17 | 3.0 | 8.0 | 0.00 | 0.08 | 0.08 | 75 | 1013.0 |
| 20260904171529 | 67 | 236 | 3.0 | 8.0 | 0.00 | 0.08 | 0.08 | 75 | 1012.7 |
| 20260904171451 | 67 | 306 | 3.0 | 7.0 | 0.00 | 0.08 | 0.08 | 75 | 1013.0 |
| 20260904171046 | 67 | 338 | 3.0 | 8.0 | 0.00 | 0.08 | 0.08 | 75 | 1012.9 |
| 20260904165929 | 67 | 279 | 3.0 | 9.0 | 0.00 | 0.08 | 0.08 | 76 | 1012.8 |
| 20260904165741 | 67 | 286 | 3.0 | 9.0 | 0.00 | 0.08 | 0.08 | 76 | 1012.8 |
| 20260904164910 | 67 | 301 | 3.0 | 10.0 | 0.00 | 0.08 | 0.08 | 77 | 1012.8 |
| 20260904164408 | 67 | 193 | 3.0 | 14.0 | 0.00 | 0.08 | 0.08 | 77 | 1012.8 |
| 20260904163910 | 68 | 327 | 4.0 | 14.0 | 0.00 | 0.08 | 0.08 | 78 | 1012.6 |
| 20260904163408 | 68 | 314 | 3.0 | 10.0 | 0.00 | 0.08 | 0.08 | 79 | 1012.7 |
| 20260904162907 | 68 | 291 | 3.0 | 10.0 | 0.00 | 0.08 | 0.08 | 81 | 1012.6 |
| 20260904162416 | 68 | 295 | 3.0 | 10.0 | 0.00 | 0.08 | 0.08 | 81 | 1012.6 |
| 20260904161908 | 68 | 224 | 4.0 | 10.0 | 0.00 | 0.08 | 0.08 | 81 | 1012.6 |
| 20260904161405 | 68 | 261 | 3.0 | 9.0 | 0.00 | 0.08 | 0.08 | 82 | 1012.5 |
| 20260904160904 | 68 | 214 | 4.0 | 11.0 | 0.00 | 0.08 | 0.08 | 83 | 1012.5 |
| 20260904160409 | 68 | 271 | 4.0 | 11.0 | 0.00 | 0.08 | 0.08 | 83 | 1012.7 |
| 20260904155910 | 68 | 274 | 3.0 | 11.0 | 0.00 | 0.08 | 0.08 | 83 | 1012.6 |
| 20260904155728 | 68 | 223 | 4.0 | 12.0 | 0.00 | 0.08 | 0.08 | 84 | 1012.6 |
| 20260904154903 | 68 | 304 | 4.0 | 12.0 | 0.00 | 0.08 | 0.08 | 84 | 1012.7 |
| 20260904154400 | 68 | 272 | 3.0 | 9.0 | 0.00 | 0.08 | 0.08 | 85 | 1012.7 |
| 20260904153904 | 68 | 257 | 3.0 | 8.0 | 0.00 | 0.08 | 0.08 | 85 | 1012.5 |
| 20260904153559 | 68 | 174 | 4.0 | 10.0 | 0.00 | 0.08 | 0.08 | 85 | 1012.5 |
| 20260904153512 | 68 | 227 | 4.0 | 10.0 | 0.00 | 0.08 | 0.08 | 85 | 1012.6 |
| 20260904152401 | 68 | 5 | 4.0 | 9.0 | 0.00 | 0.08 | 0.08 | 86 | 1012.5 |
| 20260904151901 | 67 | 200 | 4.0 | 11.0 | 0.00 | 0.08 | 0.08 | 86 | 1012.4 |
| 20260904151401 | 67 | 243 | 4.0 | 11.0 | 0.00 | 0.08 | 0.08 | 87 | 1012.3 |
| 20260904150900 | 67 | 234 | 4.0 | 10.0 | 0.00 | 0.08 | 0.08 | 88 | 1012.3 |
| 20260904150357 | 67 | 240 | 4.0 | 10.0 | 0.00 | 0.08 | 0.08 | 88 | 1012.3 |
| 20260904150233 | 66 | 230 | 4.0 | 12.0 | 0.00 | 0.08 | 0.08 | 89 | 1012.4 |
| 20260904145359 | 66 | 254 | 4.0 | 12.0 | 0.00 | 0.08 | 0.08 | 89 | 1012.4 |
| 20260904144853 | 66 | 265 | 4.0 | 11.0 | 0.00 | 0.08 | 0.08 | 89 | 1012.5 |
| 20260904144355 | 66 | 212 | 4.0 | 11.0 | 0.00 | 0.08 | 0.08 | 89 | 1012.4 |
| 20260904143853 | 66 | 211 | 4.0 | 11.0 | 0.00 | 0.08 | 0.08 | 90 | 1012.3 |
| 20260904143353 | 66 | 219 | 5.0 | 12.0 | 0.00 | 0.08 | 0.08 | 90 | 1012.3 |
| 20260904143226 | 65 | 263 | 4.0 | 12.0 | 0.00 | 0.08 | 0.08 | 90 | 1012.2 |
| 20260904142352 | 65 | 232 | 4.0 | 12.0 | 0.00 | 0.08 | 0.08 | 91 | 1012.2 |
| 20260904141855 | 65 | 248 | 3.0 | 12.0 | 0.00 | 0.08 | 0.08 | 91 | 1012.2 |
| 20260904141721 | 65 | 176 | 3.0 | 11.0 | 0.00 | 0.08 | 0.08 | 90 | 1012.3 |
| 20260904140856 | 65 | 164 | 2.0 | 11.0 | 0.01 | 0.08 | 0.08 | 91 | 1012.2 |
| 20260904140717 | 65 | 233 | 3.0 | 7.0 | 0.01 | 0.08 | 0.08 | 90 | 1012.2 |
| 20260904135849 | 65 | 229 | 3.0 | 8.0 | 0.01 | 0.08 | 0.08 | 90 | 1012.2 |
| 20260904135344 | 65 | 282 | 3.0 | 8.0 | 0.01 | 0.08 | 0.08 | 90 | 1011.9 |
| 20260904135209 | 65 | 223 | 3.0 | 8.0 | 0.01 | 0.08 | 0.08 | 90 | 1011.8 |
| 20260904134346 | 65 | 299 | 3.0 | 9.0 | 0.02 | 0.08 | 0.08 | 90 | 1011.7 |
| 20260904133843 | 65 | 285 | 3.0 | 9.0 | 0.02 | 0.08 | 0.08 | 90 | 1011.6 |
| 20260904133550 | 65 | 103 | 4.0 | 10.0 | 0.04 | 0.08 | 0.08 | 90 | 1011.7 |
| 20260904133452 | 65 | 204 | 3.0 | 10.0 | 0.02 | 0.08 | 0.08 | 90 | 1011.7 |
| 20260904132345 | 65 | 209 | 4.0 | 10.0 | 0.07 | 0.08 | 0.08 | 90 | 1011.8 |
| 20260904131840 | 65 | 255 | 4.0 | 12.0 | 0.07 | 0.08 | 0.08 | 91 | 1011.7 |
| 20260904131342 | 65 | 196 | 5.0 | 13.0 | 0.07 | 0.08 | 0.08 | 90 | 1011.8 |
| 20260904130839 | 65 | 206 | 5.0 | 14.0 | 0.07 | 0.07 | 0.07 | 90 | 1011.7 |
| 20260904130338 | 66 | 238 | 4.0 | 14.0 | 0.07 | 0.07 | 0.07 | 90 | 1011.7 |
| 20260904125844 | 66 | 221 | 4.0 | 14.0 | 0.07 | 0.07 | 0.07 | 90 | 1011.6 |
| 20260904125338 | 66 | 208 | 5.0 | 12.0 | 0.07 | 0.07 | 0.07 | 90 | 1011.7 |
| 20260904124841 | 67 | 306 | 5.0 | 14.0 | 0.07 | 0.07 | 0.06 | 89 | 1011.5 |
| 20260904124341 | 67 | 311 | 6.0 | 14.0 | 0.06 | 0.06 | 0.06 | 89 | 1011.5 |
| 20260904123839 | 68 | 284 | 5.0 | 13.0 | 0.06 | 0.06 | 0.06 | 88 | 1011.5 |
| 20260904123339 | 69 | 284 | 6.0 | 13.0 | 0.06 | 0.06 | 0.06 | 89 | 1011.4 |
| 20260904122840 | 70 | 254 | 6.0 | 13.0 | 0.04 | 0.04 | 0.03 | 89 | 1011.1 |
| 20260904122343 | 70 | 246 | 5.0 | 13.0 | 0.01 | 0.01 | 0.01 | 89 | 1010.6 |
| 20260904122159 | 70 | 204 | 5.0 | 13.0 | 0.01 | 0.01 | 0.01 | 89 | 1010.5 |
| 20260904121339 | 70 | 209 | 5.0 | 11.0 | 0.01 | 0.01 | 0.01 | 88 | 1010.6 |
| 20260904120839 | 70 | 219 | 6.0 | 11.0 | 0.00 | 0.00 | 0.00 | 88 | 1010.5 |